User: anonymous   Login
Location: Bangkok
(13.7500°N, 100.5170°E)
Time: 04:14:41
(UTC+07:00)
Language:

Cosmos 1802 Rocket - Orbit

View from above orbital plane
View from above orbital plane
View from above satellite
View from above satellite

Ground track
Ground track

The orbit data is extracted from the following two-line orbital elements,

1 17160U 86093B   16039.55236560 -.00000011  00000-0 -27500-4 0  9994
2 17160  82.9246  71.2488 0040388  87.3652  76.8687 13.74574309464911
Epoch (UTC): 08 February 2016 13:15:24
Eccentricity: 0.0040388
inclination: 82.9246°
perigee height: 953 km
apogee height: 1013 km
right ascension of ascending node: 71.2488°
argument of perigee: 87.3652°
revolutions per day: 13.74574309
mean anomaly at epoch: 76.8687°
orbit number at epoch: 46491

The dashed part of the orbit path shows where the satellite is in the earth's shadow,  

DLR